Theta_e
348 349 350 348 348 345 346 350 348 348 349 348 347 347 349 348 348 347 347 348 341 340 339 344 344 338 336 336 337 338 347 347 345 346 347 345 343 343 344 343 343 342 344
350 352 351 347 345 347 349 349 350 347 348 347 348 348 348 349 350 345 345 348 347 344 342 342 340 338 337 339 338 338 338 347 347 345 345 345 343 343 342 344 346 345 343
352 354 349 345 346 346 345 344 347 349 346 344 345 348 349 348 349 350 348 348 344 343 343 343 342 342 341 338 338 339 338 340 347 344 344 343 343 343 342 342 342 343 342
354 352 348 349 350 347 345 342 347 349 346 345 346 348 350 350 350 351 351 350 346 344 344 343 342 342 343 339 340 340 338 337 342 345 344 340 343 342 342 343 343 339 341
356 356 352 352 353 352 346 344 347 350 347 344 347 349 352 351 351 350 350 352 352 350 349 348 346 344 345 343 343 343 343 344 339 344 343 342 341 342 342 338 339 337 336
357 357 355 355 354 352 348 346 348 347 347 345 351 352 353 352 349 350 351 352 352 352 351 350 350 349 346 346 346 346 342 343 341 340 339 340 342 342 341 340 336 334 335
357 357 356 353 354 350 348 346 346 349 352 349 349 350 348 353 351 351 351 351 352 351 350 349 349 349 349 348 345 346 343 344 342 338 341 339 340 341 341 340 338 341 337
360 360 357 354 352 351 350 350 350 350 349 351 352 352 354 352 351 351 351 351 351 350 349 349 349 349 349 348 348 346 345 343 344 338 339 341 340 339 340 341 341 337 341
360 359 356 354 353 351 350 350 351 353 353 352 353 352 358 356 350 351 350 350 350 348 348 349 348 348 348 349 348 346 346 347 346 340 340 340 338 340 339 339 340 340 336
358 355 353 355 354 352 352 352 353 354 354 354 353 353 352 352 355 355 350 349 347 346 346 347 347 347 346 346 346 345 343 344 345 344 340 343 339 339 341 339 339 338 340
356 353 353 353 353 351 353 353 354 354 352 353 353 351 351 351 351 349 346 345 340 343 345 347 346 347 346 345 345 345 344 342 343 344 345 346 344 340 338 342 340 341 340
356 353 353 354 355 354 353 354 354 353 353 352 351 349 346 345 344 341 341 341 340 343 345 346 345 345 344 344 345 341 342 341 342 344 343 344 346 344 342 340 342 341 342
355 355 355 354 352 354 353 352 351 350 349 347 348 344 342 342 342 341 340 340 340 340 346 345 342 341 342 342 341 339 344 341 339 341 343 344 344 344 344 346 338 337 344
355 356 354 351 351 351 349 348 345 344 345 344 344 343 339 339 339 339 339 338 338 336 339 343 341 338 335 338 336 340 340 338 340 342 342 343 344 345 344 343 344 340 343
355 355 353 350 349 348 347 346 344 344 343 341 339 338 335 334 333 334 334 335 335 337 336 340 338 335 332 331 330 334 336 338 337 340 341 341 343 343 342 342 344 343 340
355 354 351 348 348 348 347 345 343 343 341 336 333 333 329 326 325 326 327 327 328 331 334 335 331 330 329 328 325 327 331 334 334 336 339 338 337 338 339 341 341 340 339
356 354 348 348 347 347 347 345 344 341 336 335 332 329 327 325 320 318 317 317 317 319 324 329 324 324 326 324 326 326 325 329 330 330 333 334 336 338 338 339 338 338 339
354 352 349 348 347 346 345 344 341 338 337 334 327 325 323 319 320 319 317 317 317 317 317 317 318 316 317 317 318 321 323 323 326 322 323 325 330 332 333 334 336 337 338
353 351 349 348 347 346 345 343 341 338 336 330 324 324 321 322 320 319 319 318 319 319 318 317 317 316 316 317 317 316 317 318 320 320 318 317 316 320 322 328 331 332 333
352 351 348 347 346 345 344 342 340 337 332 326 324 323 321 322 322 322 321 321 321 320 319 317 317 316 316 316 317 316 316 315 315 315 317 317 315 315 313 311 316 326 330
352 351 349 347 345 344 342 341 338 336 329 324 323 323 322 322 318 321 320 322 323 321 319 317 316 316 316 317 317 316 316 316 317 317 316 315 314 315 318 318 317 313 313
351 349 347 345 344 341 337 337 337 333 329 324 325 324 324 319 319 318 316 316 318 321 321 320 316 316 316 317 316 317 317 317 318 318 317 316 315 315 314 315 318 317 315
349 347 345 344 343 338 333 331 331 328 324 324 325 324 323 321 321 323 323 321 317 317 316 317 317 317 317 316 317 318 317 318 317 317 316 316 315 317 315 315 315 315 313
346 344 342 342 339 332 326 325 323 325 325 325 324 322 318 318 317 314 317 321 322 321 321 319 315 316 316 316 316 316 317 318 318 318 318 318 316 316 316 316 315 314 313
343 341 340 336 333 325 318 319 320 323 323 322 320 316 317 316 316 311 318 320 321 320 318 317 314 314 315 314 312 313 315 316 316 316 317 317 317 316 317 317 317 315 313
340 336 332 331 328 321 315 314 319 319 320 318 317 318 315 310 309 310 319 320 320 319 319 318 317 318 318 319 317 316 315 316 316 317 317 317 317 317 317 316 317 317 317
Wind_Speed
5 5 4 5 7 8 10 8 10 8 7 10 11 11 10 13 14 14 13 10 13 15 15 17 17 15 16 19 19 17 17 18 18 17 16 18 19 17 15 15 15 15 14
7 6 6 9 10 9 9 9 10 11 12 13 13 13 14 13 12 15 15 15 11 14 16 20 20 21 21 22 22 20 20 21 21 21 20 19 20 20 19 18 17 16 15
9 10 9 14 15 13 14 13 13 12 11 9 12 14 15 18 16 15 14 17 16 17 21 22 22 26 27 26 27 25 23 23 23 24 23 22 21 22 22 20 18 18 16
12 14 14 13 11 15 15 13 12 13 12 11 12 13 13 15 15 14 13 16 20 20 19 24 23 23 30 31 28 32 29 28 26 26 25 24 24 23 23 21 21 20 19
12 13 14 15 14 14 14 15 10 8 10 12 12 14 12 12 11 12 14 15 14 10 11 14 17 19 28 28 27 30 31 30 30 29 27 25 26 26 24 23 24 22 21
11 12 13 14 13 13 13 15 10 10 11 13 11 10 10 10 13 12 12 10 9 9 10 10 11 11 15 27 31 34 30 32 30 31 29 28 28 28 26 25 24 24 23
10 11 12 12 9 7 9 9 9 9 9 10 9 6 9 7 6 4 4 5 5 6 6 6 6 7 7 10 14 25 29 30 32 37 31 30 29 29 29 27 27 26 25
8 7 5 5 4 4 6 10 10 6 6 6 3 7 3 6 5 3 2 1 1 2 3 4 3 4 5 6 6 13 18 31 33 37 36 29 30 29 30 30 28 27 28
2 3 3 2 3 4 6 8 7 7 6 4 6 5 3 2 3 1 3 2 3 3 4 2 2 2 4 4 4 6 12 25 42 37 39 36 35 32 33 32 31 30 28
3 3 3 3 4 4 4 4 5 6 6 5 3 6 6 6 3 1 6 1 3 4 4 3 2 2 4 5 3 5 7 8 18 32 38 38 40 37 34 35 33 32 30
5 3 4 4 3 3 3 3 4 4 4 4 4 4 2 3 1 4 5 4 3 3 5 4 4 4 5 5 5 4 9 8 9 16 32 37 37 40 43 34 36 33 33
5 5 3 2 2 2 3 2 1 1 2 4 4 3 4 3 2 4 5 4 5 3 2 3 5 6 7 8 6 9 9 7 9 11 20 26 34 35 38 45 34 33 33
6 5 3 1 1 2 2 3 3 4 3 3 3 4 5 5 6 7 8 5 6 1 2 2 6 7 8 9 12 11 7 12 9 10 12 18 26 33 35 34 47 41 33
6 7 4 4 4 5 5 5 5 4 4 4 4 4 3 4 4 3 5 7 6 6 4 1 3 8 8 8 10 12 11 14 12 4 6 11 16 24 27 33 34 43 38
8 9 7 7 7 6 6 5 4 4 4 3 3 4 4 4 4 4 4 5 7 6 4 6 4 9 10 10 11 10 11 14 12 7 4 3 8 13 17 20 26 33 35
14 14 13 11 9 7 6 4 4 3 3 3 3 4 4 4 4 5 5 5 6 8 5 6 6 8 9 8 11 10 9 11 12 11 6 3 2 2 6 16 22 28 34
16 14 13 13 11 10 8 6 5 4 4 4 4 4 5 5 5 6 6 7 8 9 8 7 6 7 7 9 9 10 9 8 8 10 8 7 6 3 10 11 14 18 22
18 16 15 14 13 11 9 7 5 5 4 4 4 3 4 4 5 5 6 8 8 9 7 4 5 7 7 9 10 9 9 7 6 10 9 8 6 4 2 3 8 14 19
19 17 17 16 14 11 9 7 6 6 4 4 4 5 4 4 4 6 5 4 5 6 6 6 7 7 10 8 10 7 9 9 8 8 9 10 9 6 4 4 5 6 7
22 20 16 14 12 11 8 6 5 4 5 4 4 4 5 4 3 3 3 2 6 6 5 7 8 9 7 9 8 10 12 10 11 11 9 10 9 11 9 8 8 9 9
19 17 16 15 13 10 9 9 8 7 6 6 5 5 4 4 5 3 4 2 4 8 9 10 9 11 11 12 10 11 11 12 11 5 9 11 12 10 10 11 9 10 9
23 20 14 13 12 10 10 11 7 6 6 6 5 3 3 4 4 6 7 6 4 5 7 9 10 10 9 10 10 12 10 12 10 3 11 13 10 10 11 11 8 9 11
27 25 21 13 10 7 10 10 12 6 6 5 3 2 4 1 5 8 9 10 9 8 8 6 8 8 11 10 11 12 11 12 13 13 10 13 9 9 9 9 6 9 12
30 29 24 16 11 9 10 11 11 6 5 4 2 1 2 5 6 8 9 9 9 9 9 8 10 12 12 12 12 13 14 13 15 15 4 11 11 11 9 10 12 14 13
24 21 25 22 14 11 11 10 9 6 5 4 3 2 3 6 7 6 5 5 6 7 10 13 15 19 19 16 17 15 17 14 15 14 8 9 12 16 14 14 10 9 11
21 21 24 18 17 15 14 12 10 7 6 5 4 3 6 3 5 4 4 6 9 10 12 15 17 18 16 14 14 14 17 19 18 14 8 10 13 13 15 17 14 8 10
Wind_Direction
250 253 260 278 297 298 284 280 267 266 275 266 269 268 254 266 266 271 268 254 253 245 239 237 235 222 227 236 230 238 228 229 227 218 210 208 208 206 202 194 187 189 202
251 260 263 260 269 275 278 277 275 277 270 272 275 270 270 263 256 263 263 267 250 252 250 247 229 228 224 235 233 234 235 230 227 227 219 216 211 209 209 207 199 198 197
249 249 262 267 263 263 273 274 279 274 292 294 280 278 274 261 265 263 249 252 261 261 251 247 237 230 233 232 232 234 233 234 232 227 225 218 215 214 212 212 210 209 207
245 254 258 264 266 253 254 272 275 280 283 287 284 285 277 259 259 255 256 253 253 251 251 246 243 237 239 242 238 232 229 231 233 231 227 223 220 216 216 216 215 216 219
251 258 265 268 259 258 248 252 275 281 281 286 289 291 270 260 262 261 260 254 259 251 247 251 262 250 231 231 244 229 227 225 228 228 226 224 226 221 222 222 222 222 221
254 262 273 274 265 250 263 234 247 281 272 271 282 281 269 266 263 267 268 270 261 250 252 252 261 265 246 241 248 229 225 224 223 229 229 231 228 227 222 224 221 220 220
264 263 271 280 274 261 256 214 231 258 281 268 271 267 278 251 255 255 268 261 254 251 258 261 260 271 281 283 255 229 227 220 217 222 228 232 232 230 229 226 226 224 221
269 267 265 286 271 231 205 200 217 255 269 248 268 274 236 194 206 244 213 229 302 285 272 265 244 259 284 290 287 236 227 216 215 222 227 229 235 231 230 230 228 228 226
252 212 240 235 210 194 164 173 207 234 257 241 228 275 350 280 256 217 268 81 324 337 293 280 277 291 287 287 293 265 234 234 216 216 224 230 234 236 236 231 231 231 230
191 203 189 177 178 184 184 197 219 249 254 267 258 255 285 308 355 310 216 236 318 329 335 328 319 343 329 319 315 305 296 244 219 230 219 222 229 233 237 237 235 233 233
198 174 161 171 181 193 213 242 258 259 271 271 271 287 323 322 283 280 303 195 291 65 352 318 39 12 13 2 2 2 302 287 253 227 225 226 223 228 229 234 237 236 235
195 178 174 209 237 235 240 247 300 347 348 359 356 338 313 310 272 298 288 296 331 34 350 46 47 28 13 6 18 11 350 330 277 260 241 233 229 224 228 225 227 233 237
199 178 177 206 184 143 128 104 82 67 53 58 43 6 2 2 329 325 315 312 286 163 223 63 31 18 15 11 12 15 356 344 314 262 256 244 235 233 235 219 223 227 230
190 166 168 150 139 128 122 120 112 95 83 66 48 30 15 9 350 345 332 312 309 276 183 317 25 15 7 3 358 15 5 1 7 331 282 262 247 240 237 244 225 213 222
175 165 158 153 150 149 146 136 119 108 97 71 53 28 8 13 14 356 337 333 325 305 299 60 9 19 3 3 7 5 8 359 13 17 354 294 258 246 240 232 207 212 219
174 169 164 164 165 161 153 146 133 102 78 51 46 44 29 16 17 20 8 357 347 319 311 24 360 7 360 357 359 9 10 6 15 25 14 345 300 279 257 234 227 230 233
174 169 166 165 167 171 170 161 136 118 97 74 48 44 49 42 27 21 22 17 16 355 324 47 360 360 341 351 347 354 358 2 1 18 16 32 44 268 245 231 235 240 242
172 169 166 168 174 175 172 164 160 147 131 89 68 65 57 49 60 50 54 51 45 33 5 351 4 341 347 344 340 333 333 336 347 346 358 21 24 15 27 244 242 245 242
169 172 171 173 174 172 170 167 165 153 129 106 116 117 101 72 66 72 56 53 46 29 9 354 333 344 332 339 333 325 328 321 313 324 345 348 348 329 323 294 276 265 264
170 173 174 171 171 166 171 173 174 157 141 125 125 125 135 119 123 92 63 50 34 350 2 343 336 338 341 349 335 339 327 319 313 305 289 284 316 314 304 299 286 273 260
174 170 169 169 168 171 182 178 180 179 161 145 138 152 157 175 185 202 300 354 340 343 345 343 344 343 353 344 348 337 331 329 312 309 307 302 289 289 277 292 279 283 285
166 163 165 170 177 184 188 180 163 171 166 164 164 194 205 240 266 283 272 263 271 326 334 336 342 351 347 325 341 341 331 343 335 6 321 308 292 291 287 280 247 265 295
159 159 151 174 187 177 178 174 160 171 186 181 194 262 279 337 285 276 274 281 272 282 284 291 304 316 314 315 313 312 331 321 316 314 307 318 303 299 296 284 273 295 291
160 166 148 158 180 163 170 162 161 170 187 178 187 222 320 321 308 298 282 272 275 273 269 268 288 292 290 291 286 287 291 291 288 285 240 294 311 300 304 293 283 283 286
165 148 147 154 162 153 161 155 155 173 176 181 189 224 303 310 297 310 291 284 285 285 283 283 291 297 299 299 278 274 279 275 280 297 283 259 295 314 313 299 292 276 288
151 153 153 151 154 154 158 157 160 180 177 209 206 253 290 285 271 287 279 296 296 300 301 299 293 294 291 274 280 264 261 276 284 290 288 294 287 298 296 288 300 274 258